| time (UTC) | temp F | wind direction | speed MPH | gust MPH | rain 1hr in | rain 24hr in | rain mn in | humidity % | barometer mb |
| 20260902224203 | 81 | 283 | 3.0 | 7.0 | 0.00 | 0.00 | 0.00 | 21 | 1011.8 |
| 20260902224003 | 81 | 285 | 3.0 | 11.0 | 0.00 | 0.00 | 0.00 | 22 | 1011.8 |
| 20260902223803 | 81 | 289 | 3.0 | 11.0 | 0.00 | 0.00 | 0.00 | 22 | 1011.8 |
| 20260902223624 | 81 | 292 | 4.0 | 11.0 | 0.00 | 0.00 | 0.00 | 23 | 1011.8 |
| 20260902223403 | 81 | 289 | 5.0 | 11.0 | 0.00 | 0.00 | 0.00 | 22 | 1011.8 |
| 20260902223224 | 81 | 293 | 5.0 | 11.0 | 0.00 | 0.00 | 0.00 | 21 | 1011.9 |
| 20260902223003 | 82 | 300 | 4.0 | 10.0 | 0.00 | 0.00 | 0.00 | 22 | 1011.9 |
| 20260902222803 | 82 | 299 | 4.0 | 10.0 | 0.00 | 0.00 | 0.00 | 22 | 1011.9 |
| 20260902222603 | 82 | 299 | 3.0 | 10.0 | 0.00 | 0.00 | 0.00 | 22 | 1012.0 |
| 20260902222403 | 82 | 298 | 3.0 | 7.0 | 0.00 | 0.00 | 0.00 | 22 | 1012.0 |
| 20260902222203 | 82 | 291 | 3.0 | 8.0 | 0.00 | 0.00 | 0.00 | 22 | 1012.0 |
| 20260902222004 | 82 | 284 | 3.0 | 8.0 | 0.00 | 0.00 | 0.00 | 20 | 1012.0 |
| 20260902221803 | 82 | 273 | 2.0 | 8.0 | 0.00 | 0.00 | 0.00 | 20 | 1012.1 |
| 20260902221603 | 82 | 285 | 3.0 | 8.0 | 0.00 | 0.00 | 0.00 | 19 | 1012.1 |
| 20260902221403 | 82 | 292 | 2.0 | 8.0 | 0.00 | 0.00 | 0.00 | 19 | 1012.2 |
| 20260902221203 | 82 | 280 | 2.0 | 6.0 | 0.00 | 0.00 | 0.00 | 20 | 1012.1 |
| 20260902221003 | 82 | 288 | 2.0 | 8.0 | 0.00 | 0.00 | 0.00 | 20 | 1012.1 |
| 20260902220803 | 82 | 286 | 3.0 | 8.0 | 0.00 | 0.00 | 0.00 | 20 | 1012.1 |
| 20260902220603 | 82 | 285 | 2.0 | 8.0 | 0.00 | 0.00 | 0.00 | 20 | 1012.1 |
| 20260902220403 | 81 | 286 | 2.0 | 8.0 | 0.00 | 0.00 | 0.00 | 20 | 1012.2 |
| 20260902220203 | 81 | 299 | 2.0 | 8.0 | 0.00 | 0.00 | 0.00 | 20 | 1012.2 |
| 20260902220004 | 81 | 306 | 2.0 | 7.0 | 0.00 | 0.00 | 0.00 | 20 | 1012.2 |
| 20260902215824 | 81 | 310 | 3.0 | 7.0 | 0.00 | 0.00 | 0.00 | 21 | 1012.2 |
| 20260902215603 | 81 | 308 | 3.0 | 9.0 | 0.00 | 0.00 | 0.00 | 19 | 1012.2 |
| 20260902215403 | 81 | 309 | 3.0 | 9.0 | 0.00 | 0.00 | 0.00 | 19 | 1012.2 |
| 20260902214803 | 81 | 274 | 2.0 | 9.0 | 0.00 | 0.00 | 0.00 | 18 | 1012.3 |
| 20260902214624 | 81 | 261 | 2.0 | 6.0 | 0.00 | 0.00 | 0.00 | 18 | 1012.3 |
| 20260902214403 | 81 | 284 | 3.0 | 14.0 | 0.00 | 0.00 | 0.00 | 17 | 1012.4 |
| 20260902214203 | 81 | 288 | 4.0 | 14.0 | 0.00 | 0.00 | 0.00 | 16 | 1012.4 |
| 20260902213824 | 81 | 299 | 3.0 | 14.0 | 0.00 | 0.00 | 0.00 | 17 | 1012.5 |
| 20260902213624 | 81 | 306 | 2.0 | 14.0 | 0.00 | 0.00 | 0.00 | 17 | 1012.5 |
| 20260902213404 | 81 | 320 | 2.0 | 11.0 | 0.00 | 0.00 | 0.00 | 19 | 1012.5 |
| 20260902213212 | 81 | 300 | 2.0 | 7.0 | 0.00 | 0.00 | 0.00 | 18 | 1012.4 |
| 20260902212803 | 80 | 297 | 2.0 | 8.0 | 0.00 | 0.00 | 0.00 | 17 | 1012.5 |
| 20260902212603 | 80 | 296 | 3.0 | 8.0 | 0.00 | 0.00 | 0.00 | 17 | 1012.6 |
| 20260902212403 | 81 | 278 | 3.0 | 8.0 | 0.00 | 0.00 | 0.00 | 16 | 1012.6 |
| 20260902212224 | 81 | 289 | 2.0 | 8.0 | 0.00 | 0.00 | 0.00 | 16 | 1012.5 |
| 20260902212003 | 81 | 291 | 2.0 | 6.0 | 0.00 | 0.00 | 0.00 | 17 | 1012.6 |
| 20260902211803 | 81 | 281 | 2.0 | 6.0 | 0.00 | 0.00 | 0.00 | 18 | 1012.6 |
| 20260902211624 | 81 | 228 | 2.0 | 7.0 | 0.00 | 0.00 | 0.00 | 16 | 1012.5 |
| 20260902211424 | 81 | 224 | 2.0 | 7.0 | 0.00 | 0.00 | 0.00 | 17 | 1012.6 |
| 20260902211203 | 81 | 124 | 2.0 | 7.0 | 0.00 | 0.00 | 0.00 | 18 | 1012.6 |
| 20260902211003 | 81 | 130 | 2.0 | 7.0 | 0.00 | 0.00 | 0.00 | 16 | 1012.6 |
| 20260902210804 | 81 | 163 | 2.0 | 7.0 | 0.00 | 0.00 | 0.00 | 16 | 1012.6 |
| 20260902210604 | 81 | 257 | 2.0 | 7.0 | 0.00 | 0.00 | 0.00 | 17 | 1012.7 |
| 20260902210403 | 81 | 255 | 3.0 | 7.0 | 0.00 | 0.00 | 0.00 | 17 | 1012.7 |
| 20260902210203 | 80 | 254 | 2.0 | 7.0 | 0.00 | 0.00 | 0.00 | 16 | 1012.7 |
| 20260902210024 | 80 | 256 | 2.0 | 7.0 | 0.00 | 0.00 | 0.00 | 16 | 1012.8 |
| 20260902205803 | 81 | 266 | 3.0 | 9.0 | 0.00 | 0.00 | 0.00 | 17 | 1012.7 |
| 20260902205603 | 81 | 262 | 2.0 | 9.0 | 0.00 | 0.00 | 0.00 | 16 | 1012.8 |
| 20260902205424 | 81 | 269 | 2.0 | 9.0 | 0.00 | 0.00 | 0.00 | 16 | 1012.8 |
| 20260902205203 | 81 | 285 | 2.0 | 9.0 | 0.00 | 0.00 | 0.00 | 16 | 1012.8 |
| 20260902205003 | 81 | 297 | 2.0 | 10.0 | 0.00 | 0.00 | 0.00 | 17 | 1012.9 |
| 20260902204603 | 80 | 305 | 2.0 | 10.0 | 0.00 | 0.00 | 0.00 | 19 | 1012.8 |
| 20260902204424 | 80 | 300 | 3.0 | 10.0 | 0.00 | 0.00 | 0.00 | 19 | 1012.9 |
| 20260902204203 | 80 | 298 | 3.0 | 10.0 | 0.00 | 0.00 | 0.00 | 19 | 1012.8 |
| 20260902204024 | 80 | 299 | 3.0 | 6.0 | 0.00 | 0.00 | 0.00 | 20 | 1012.8 |
| 20260902203803 | 80 | 294 | 3.0 | 8.0 | 0.00 | 0.00 | 0.00 | 18 | 1012.8 |
| 20260902203624 | 80 | 297 | 3.0 | 8.0 | 0.00 | 0.00 | 0.00 | 20 | 1012.9 |
| 20260902203403 | 80 | 300 | 4.0 | 8.0 | 0.00 | 0.00 | 0.00 | 20 | 1012.9 |
| 20260902203203 | 80 | 294 | 3.0 | 8.0 | 0.00 | 0.00 | 0.00 | 20 | 1012.9 |
| 20260902203003 | 80 | 293 | 3.0 | 8.0 | 0.00 | 0.00 | 0.00 | 19 | 1013.0 |
| 20260902202803 | 80 | 296 | 3.0 | 6.0 | 0.00 | 0.00 | 0.00 | 20 | 1012.9 |
| 20260902202624 | 80 | 294 | 2.0 | 6.0 | 0.00 | 0.00 | 0.00 | 20 | 1012.9 |
| 20260902202403 | 80 | 279 | 1.0 | 6.0 | 0.00 | 0.00 | 0.00 | 19 | 1012.9 |
| 20260902202250 | 80 | 302 | 1.0 | 8.0 | 0.00 | 0.00 | 0.00 | 20 | 1012.9 |
| 20260902202024 | 80 | 293 | 2.0 | 8.0 | 0.00 | 0.00 | 0.00 | 20 | 1012.9 |
| 20260902201803 | 79 | 269 | 2.0 | 8.0 | 0.00 | 0.00 | 0.00 | 19 | 1013.0 |
| 20260902201603 | 79 | 270 | 3.0 | 8.0 | 0.00 | 0.00 | 0.00 | 19 | 1013.0 |
| 20260902201403 | 79 | 273 | 3.0 | 8.0 | 0.00 | 0.00 | 0.00 | 18 | 1013.1 |
| 20260902201203 | 79 | 271 | 4.0 | 9.0 | 0.00 | 0.00 | 0.00 | 18 | 1013.1 |
| 20260902201024 | 79 | 271 | 4.0 | 9.0 | 0.00 | 0.00 | 0.00 | 17 | 1013.0 |
| 20260902200803 | 79 | 277 | 4.0 | 9.0 | 0.00 | 0.00 | 0.00 | 18 | 1013.1 |
| 20260902200618 | 79 | 276 | 4.0 | 9.0 | 0.00 | 0.00 | 0.00 | 19 | 1013.1 |
| 20260902200403 | 79 | 275 | 3.0 | 9.0 | 0.00 | 0.00 | 0.00 | 19 | 1013.1 |
| 20260902200204 | 79 | 283 | 3.0 | 8.0 | 0.00 | 0.00 | 0.00 | 19 | 1013.1 |
| 20260902195803 | 79 | 278 | 2.0 | 8.0 | 0.00 | 0.00 | 0.00 | 19 | 1013.2 |
| 20260902195603 | 79 | 269 | 2.0 | 8.0 | 0.00 | 0.00 | 0.00 | 18 | 1013.1 |
| 20260902195403 | 79 | 266 | 3.0 | 8.0 | 0.00 | 0.00 | 0.00 | 18 | 1013.1 |
| 20260902195225 | 79 | 262 | 3.0 | 8.0 | 0.00 | 0.00 | 0.00 | 18 | 1013.1 |
| 20260902195003 | 79 | 271 | 2.0 | 8.0 | 0.00 | 0.00 | 0.00 | 20 | 1013.1 |
| 20260902194803 | 78 | 263 | 3.0 | 8.0 | 0.00 | 0.00 | 0.00 | 19 | 1013.1 |
| 20260902194627 | 78 | 264 | 3.0 | 8.0 | 0.00 | 0.00 | 0.00 | 19 | 1013.1 |
| 20260902194445 | 78 | 274 | 2.0 | 8.0 | 0.00 | 0.00 | 0.00 | 19 | 1013.1 |
| 20260902194203 | 78 | 272 | 2.0 | 10.0 | 0.00 | 0.00 | 0.00 | 19 | 1013.2 |
| 20260902194003 | 78 | 281 | 3.0 | 10.0 | 0.00 | 0.00 | 0.00 | 18 | 1013.2 |
| 20260902193824 | 78 | 295 | 3.0 | 10.0 | 0.00 | 0.00 | 0.00 | 19 | 1013.1 |
| 20260902193603 | 78 | 299 | 3.0 | 10.0 | 0.00 | 0.00 | 0.00 | 19 | 1013.2 |
| 20260902193403 | 78 | 302 | 3.0 | 10.0 | 0.00 | 0.00 | 0.00 | 20 | 1013.2 |
| 20260902193203 | 78 | 303 | 2.0 | 9.0 | 0.00 | 0.00 | 0.00 | 20 | 1013.2 |
| 20260902193009 | 78 | 299 | 2.0 | 9.0 | 0.00 | 0.00 | 0.00 | 20 | 1013.2 |
| 20260902192803 | 78 | 231 | 1.0 | 8.0 | 0.00 | 0.00 | 0.00 | 21 | 1013.3 |
| 20260902192603 | 78 | 152 | 2.0 | 8.0 | 0.00 | 0.00 | 0.00 | 20 | 1013.3 |
| 20260902192403 | 78 | 161 | 2.0 | 8.0 | 0.00 | 0.00 | 0.00 | 20 | 1013.3 |
| 20260902192203 | 78 | 162 | 2.0 | 8.0 | 0.00 | 0.00 | 0.00 | 19 | 1013.4 |
| 20260902191804 | 78 | 182 | 2.0 | 8.0 | 0.00 | 0.00 | 0.00 | 20 | 1013.4 |
| 20260902191603 | 77 | 238 | 2.0 | 8.0 | 0.00 | 0.00 | 0.00 | 20 | 1013.6 |
| 20260902191404 | 77 | 256 | 2.0 | 8.0 | 0.00 | 0.00 | 0.00 | 20 | 1013.6 |
| 20260902191203 | 78 | 266 | 2.0 | 8.0 | 0.00 | 0.00 | 0.00 | 20 | 1013.5 |
| 20260902191003 | 78 | 269 | 3.0 | 8.0 | 0.00 | 0.00 | 0.00 | 20 | 1013.6 |
| 20260902190803 | 77 | 277 | 2.0 | 8.0 | 0.00 | 0.00 | 0.00 | 20 | 1013.6 |
| 20260902190604 | 77 | 284 | 2.0 | 6.0 | 0.00 | 0.00 | 0.00 | 21 | 1013.6 |
| 20260902190403 | 77 | 286 | 1.0 | 6.0 | 0.00 | 0.00 | 0.00 | 20 | 1013.6 |
| 20260902190204 | 77 | 295 | 1.0 | 6.0 | 0.00 | 0.00 | 0.00 | 21 | 1013.6 |
| 20260902190019 | 77 | 296 | 1.0 | 6.0 | 0.00 | 0.00 | 0.00 | 22 | 1013.6 |
| 20260902185809 | 76 | 297 | 1.0 | 6.0 | 0.00 | 0.00 | 0.00 | 21 | 1013.7 |
| 20260902185603 | 76 | 296 | 1.0 | 6.0 | 0.00 | 0.00 | 0.00 | 21 | 1013.7 |
| 20260902185403 | 76 | 289 | 1.0 | 6.0 | 0.00 | 0.00 | 0.00 | 21 | 1013.7 |
| 20260902185204 | 76 | 287 | 1.0 | 4.0 | 0.00 | 0.00 | 0.00 | 22 | 1013.7 |
| 20260902185003 | 76 | 258 | 1.0 | 6.0 | 0.00 | 0.00 | 0.00 | 20 | 1013.7 |
| 20260902184803 | 76 | 248 | 1.0 | 7.0 | 0.00 | 0.00 | 0.00 | 21 | 1013.7 |
| 20260902184604 | 76 | 257 | 2.0 | 7.0 | 0.00 | 0.00 | 0.00 | 21 | 1013.7 |
| 20260902184424 | 76 | 253 | 2.0 | 7.0 | 0.00 | 0.00 | 0.00 | 23 | 1013.7 |
| 20260902184203 | 76 | 253 | 2.0 | 7.0 | 0.00 | 0.00 | 0.00 | 21 | 1013.8 |
| 20260902184003 | 76 | 260 | 2.0 | 7.0 | 0.00 | 0.00 | 0.00 | 22 | 1013.7 |
| 20260902183803 | 76 | 272 | 2.0 | 6.0 | 0.00 | 0.00 | 0.00 | 21 | 1013.7 |
| 20260902183603 | 75 | 279 | 2.0 | 6.0 | 0.00 | 0.00 | 0.00 | 21 | 1013.7 |
| 20260902183403 | 75 | 293 | 2.0 | 6.0 | 0.00 | 0.00 | 0.00 | 22 | 1013.7 |
| 20260902183203 | 75 | 285 | 2.0 | 6.0 | 0.00 | 0.00 | 0.00 | 22 | 1013.8 |
| 20260902182603 | 75 | 270 | 3.0 | 7.0 | 0.00 | 0.00 | 0.00 | 21 | 1013.7 |
| 20260902182403 | 75 | 267 | 3.0 | 7.0 | 0.00 | 0.00 | 0.00 | 21 | 1013.7 |
| 20260902182028 | 75 | 270 | 3.0 | 7.0 | 0.00 | 0.00 | 0.00 | 23 | 1013.8 |
| 20260902181803 | 75 | 278 | 2.0 | 7.0 | 0.00 | 0.00 | 0.00 | 22 | 1013.9 |
| 20260902181603 | 75 | 247 | 2.0 | 7.0 | 0.00 | 0.00 | 0.00 | 21 | 1013.9 |
| 20260902181403 | 75 | 266 | 2.0 | 7.0 | 0.00 | 0.00 | 0.00 | 21 | 1013.8 |
| 20260902181224 | 75 | 278 | 2.0 | 7.0 | 0.00 | 0.00 | 0.00 | 21 | 1013.7 |
| 20260902181003 | 74 | 299 | 2.0 | 8.0 | 0.00 | 0.00 | 0.00 | 22 | 1013.7 |
| 20260902180624 | 74 | 295 | 3.0 | 8.0 | 0.00 | 0.00 | 0.00 | 22 | 1013.7 |
| 20260902180427 | 74 | 282 | 3.0 | 8.0 | 0.00 | 0.00 | 0.00 | 23 | 1013.7 |
| 20260902180203 | 74 | 277 | 3.0 | 8.0 | 0.00 | 0.00 | 0.00 | 21 | 1013.6 |
| 20260902180024 | 74 | 272 | 2.0 | 7.0 | 0.00 | 0.00 | 0.00 | 23 | 1013.6 |
| 20260902175808 | 74 | 275 | 2.0 | 7.0 | 0.00 | 0.00 | 0.00 | 22 | 1013.6 |
| 20260902175603 | 74 | 275 | 2.0 | 7.0 | 0.00 | 0.00 | 0.00 | 22 | 1013.7 |
| 20260902175403 | 74 | 291 | 2.0 | 6.0 | 0.00 | 0.00 | 0.00 | 24 | 1013.7 |
| 20260902175003 | 74 | 152 | 2.0 | 6.0 | 0.00 | 0.00 | 0.00 | 24 | 1013.7 |
| 20260902174803 | 74 | 140 | 2.0 | 6.0 | 0.00 | 0.00 | 0.00 | 25 | 1013.7 |
| 20260902174639 | 73 | 141 | 2.0 | 6.0 | 0.00 | 0.00 | 0.00 | 23 | 1013.7 |
| 20260902174403 | 73 | 258 | 2.0 | 6.0 | 0.00 | 0.00 | 0.00 | 23 | 1013.8 |
| 20260902174203 | 73 | 309 | 2.0 | 7.0 | 0.00 | 0.00 | 0.00 | 24 | 1013.7 |
| 20260902174004 | 73 | 300 | 2.0 | 7.0 | 0.00 | 0.00 | 0.00 | 25 | 1013.7 |
| 20260902173845 | 73 | 298 | 3.0 | 7.0 | 0.00 | 0.00 | 0.00 | 25 | 1013.7 |
| 20260902173603 | 73 | 293 | 3.0 | 7.0 | 0.00 | 0.00 | 0.00 | 25 | 1013.7 |
| 20260902173403 | 73 | 285 | 2.0 | 7.0 | 0.00 | 0.00 | 0.00 | 25 | 1013.7 |
| 20260902173224 | 73 | 279 | 2.0 | 7.0 | 0.00 | 0.00 | 0.00 | 24 | 1013.8 |
| 20260902173003 | 74 | 279 | 2.0 | 7.0 | 0.00 | 0.00 | 0.00 | 24 | 1013.8 |
| 20260902172803 | 74 | 271 | 1.0 | 5.0 | 0.00 | 0.00 | 0.00 | 24 | 1013.8 |
| 20260902172603 | 73 | 272 | 1.0 | 5.0 | 0.00 | 0.00 | 0.00 | 22 | 1013.9 |
| 20260902172403 | 73 | 273 | 1.0 | 5.0 | 0.00 | 0.00 | 0.00 | 23 | 1013.9 |
| 20260902172224 | 73 | 281 | 1.0 | 5.0 | 0.00 | 0.00 | 0.00 | 23 | 1013.8 |
| 20260902172004 | 73 | 292 | 1.0 | 5.0 | 0.00 | 0.00 | 0.00 | 24 | 1013.8 |
| 20260902171645 | 72 | 290 | 2.0 | 5.0 | 0.00 | 0.00 | 0.00 | 24 | 1013.8 |
| 20260902171224 | 73 | 294 | 1.0 | 5.0 | 0.00 | 0.00 | 0.00 | 23 | 1013.8 |
| 20260902171003 | 73 | 290 | 1.0 | 5.0 | 0.00 | 0.00 | 0.00 | 23 | 1013.8 |
| 20260902170804 | 73 | 302 | 0.0 | 3.0 | 0.00 | 0.00 | 0.00 | 24 | 1013.8 |
| 20260902170603 | 73 | 298 | 0.0 | 3.0 | 0.00 | 0.00 | 0.00 | 23 | 1013.7 |
| 20260902170204 | 72 | 288 | 1.0 | 5.0 | 0.00 | 0.00 | 0.00 | 23 | 1013.7 |
| 20260902170024 | 72 | 284 | 1.0 | 5.0 | 0.00 | 0.00 | 0.00 | 24 | 1013.7 |
| 20260902165803 | 72 | 286 | 2.0 | 5.0 | 0.00 | 0.00 | 0.00 | 24 | 1013.7 |
| 20260902165603 | 72 | 287 | 2.0 | 5.0 | 0.00 | 0.00 | 0.00 | 23 | 1013.7 |
| 20260902165403 | 72 | 291 | 1.0 | 5.0 | 0.00 | 0.00 | 0.00 | 23 | 1013.7 |
| 20260902165203 | 72 | 277 | 1.0 | 5.0 | 0.00 | 0.00 | 0.00 | 23 | 1013.8 |
| 20260902165003 | 72 | 280 | 1.0 | 5.0 | 0.00 | 0.00 | 0.00 | 24 | 1013.7 |
| 20260902164803 | 72 | 263 | 1.0 | 5.0 | 0.00 | 0.00 | 0.00 | 23 | 1013.7 |
| 20260902164625 | 72 | 262 | 1.0 | 5.0 | 0.00 | 0.00 | 0.00 | 23 | 1013.7 |
| 20260902164403 | 71 | 276 | 1.0 | 5.0 | 0.00 | 0.00 | 0.00 | 23 | 1013.7 |
| 20260902164224 | 71 | 278 | 1.0 | 5.0 | 0.00 | 0.00 | 0.00 | 23 | 1013.7 |
| 20260902164003 | 71 | 288 | 1.0 | 5.0 | 0.00 | 0.00 | 0.00 | 24 | 1013.7 |
| 20260902163803 | 71 | 291 | 1.0 | 5.0 | 0.00 | 0.00 | 0.00 | 24 | 1013.7 |
| 20260902163603 | 71 | 288 | 1.0 | 5.0 | 0.00 | 0.00 | 0.00 | 24 | 1013.7 |
| 20260902163445 | 71 | 289 | 1.0 | 5.0 | 0.00 | 0.00 | 0.00 | 23 | 1013.7 |
| 20260902163203 | 71 | 293 | 1.0 | 5.0 | 0.00 | 0.00 | 0.00 | 22 | 1013.6 |
| 20260902163003 | 71 | 288 | 1.0 | 4.0 | 0.00 | 0.00 | 0.00 | 24 | 1013.6 |
| 20260902162845 | 71 | 293 | 1.0 | 4.0 | 0.00 | 0.00 | 0.00 | 23 | 1013.6 |
| 20260902162403 | 71 | 296 | 1.0 | 5.0 | 0.00 | 0.00 | 0.00 | 24 | 1013.5 |
| 20260902162203 | 71 | 297 | 1.0 | 5.0 | 0.00 | 0.00 | 0.00 | 24 | 1013.5 |
| 20260902162005 | 71 | 296 | 1.0 | 5.0 | 0.00 | 0.00 | 0.00 | 24 | 1013.5 |
| 20260902161824 | 71 | 297 | 1.0 | 5.0 | 0.00 | 0.00 | 0.00 | 24 | 1013.5 |
| 20260902161603 | 71 | 292 | 1.0 | 5.0 | 0.00 | 0.00 | 0.00 | 25 | 1013.5 |
| 20260902161425 | 71 | 289 | 0.0 | 5.0 | 0.00 | 0.00 | 0.00 | 25 | 1013.4 |
| 20260902161224 | 71 | 276 | 0.0 | 3.0 | 0.00 | 0.00 | 0.00 | 24 | 1013.5 |
| 20260902161024 | 71 | 268 | 0.0 | 3.0 | 0.00 | 0.00 | 0.00 | 26 | 1013.5 |
| 20260902160805 | 71 | 250 | 0.0 | 3.0 | 0.00 | 0.00 | 0.00 | 26 | 1013.5 |
| 20260902160603 | 71 | 294 | 0.0 | 2.0 | 0.00 | 0.00 | 0.00 | 27 | 1013.5 |
| 20260902160403 | 70 | 282 | 0.0 | 3.0 | 0.00 | 0.00 | 0.00 | 28 | 1013.6 |
| 20260902160204 | 70 | 283 | 0.0 | 3.0 | 0.00 | 0.00 | 0.00 | 26 | 1013.5 |
| 20260902155824 | 70 | 281 | 0.0 | 3.0 | 0.00 | 0.00 | 0.00 | 26 | 1013.5 |
| 20260902155624 | 70 | 270 | 0.0 | 3.0 | 0.00 | 0.00 | 0.00 | 26 | 1013.5 |
| 20260902155403 | 70 | 276 | 0.0 | 2.0 | 0.00 | 0.00 | 0.00 | 26 | 1013.5 |
| 20260902155203 | 70 | 282 | 0.0 | 2.0 | 0.00 | 0.00 | 0.00 | 28 | 1013.5 |
| 20260902155004 | 69 | 294 | 0.0 | 3.0 | 0.00 | 0.00 | 0.00 | 28 | 1013.5 |
| 20260902154829 | 69 | 295 | 1.0 | 3.0 | 0.00 | 0.00 | 0.00 | 28 | 1013.4 |
| 20260902154603 | 69 | 295 | 1.0 | 4.0 | 0.00 | 0.00 | 0.00 | 29 | 1013.4 |
| 20260902154403 | 69 | 295 | 1.0 | 4.0 | 0.00 | 0.00 | 0.00 | 29 | 1013.4 |
| 20260902154224 | 68 | 296 | 1.0 | 4.0 | 0.00 | 0.00 | 0.00 | 29 | 1013.4 |
| 20260902153803 | 68 | 298 | 1.0 | 4.0 | 0.00 | 0.00 | 0.00 | 29 | 1013.3 |
| 20260902153603 | 68 | 310 | 0.0 | 4.0 | 0.00 | 0.00 | 0.00 | 29 | 1013.3 |
| 20260902153403 | 68 | 310 | 0.0 | 4.0 | 0.00 | 0.00 | 0.00 | 29 | 1013.3 |
| 20260902153225 | 68 | 312 | 0.0 | 4.0 | 0.00 | 0.00 | 0.00 | 28 | 1013.3 |
| 20260902153024 | 68 | 311 | 0.0 | 4.0 | 0.00 | 0.00 | 0.00 | 29 | 1013.3 |
| 20260902152803 | 68 | 310 | 0.0 | 4.0 | 0.00 | 0.00 | 0.00 | 29 | 1013.2 |
| 20260902152604 | 68 | 310 | 0.0 | 2.0 | 0.00 | 0.00 | 0.00 | 29 | 1013.3 |
| 20260902152405 | 68 | 310 | 0.0 | 2.0 | 0.00 | 0.00 | 0.00 | 29 | 1013.3 |
| 20260902151804 | 68 | 287 | 0.0 | 2.0 | 0.00 | 0.00 | 0.00 | 28 | 1013.3 |
| 20260902151426 | 68 | 294 | 0.0 | 3.0 | 0.00 | 0.00 | 0.00 | 28 | 1013.3 |
| 20260902151225 | 68 | 305 | 1.0 | 4.0 | 0.00 | 0.00 | 0.00 | 27 | 1013.3 |
| 20260902151004 | 68 | 308 | 1.0 | 4.0 | 0.00 | 0.00 | 0.00 | 27 | 1013.3 |
| 20260902150820 | 68 | 303 | 1.0 | 4.0 | 0.00 | 0.00 | 0.00 | 27 | 1013.3 |
| 20260902150604 | 68 | 303 | 1.0 | 4.0 | 0.00 | 0.00 | 0.00 | 27 | 1013.3 |
| 20260902150447 | 68 | 302 | 1.0 | 4.0 | 0.00 | 0.00 | 0.00 | 27 | 1013.3 |
| 20260902150225 | 68 | 284 | 0.0 | 2.0 | 0.00 | 0.00 | 0.00 | 27 | 1013.3 |
| 20260902150025 | 68 | 254 | 0.0 | 2.0 | 0.00 | 0.00 | 0.00 | 26 | 1013.3 |
| 20260902145805 | 69 | 0 | 0.0 | 0.0 | 0.00 | 0.00 | 0.00 | 26 | 1013.4 |
| 20260902145404 | 68 | 0 | 0.0 | 0.0 | 0.00 | 0.00 | 0.00 | 26 | 1013.3 |
| 20260902145204 | 68 | 0 | 0.0 | 0.0 | 0.00 | 0.00 | 0.00 | 25 | 1013.3 |
| 20260902145107 | 68 | 0 | 0.0 | 0.0 | 0.00 | 0.00 | 0.00 | 25 | 1013.2 |
| 20260902144805 | 69 | 0 | 0.0 | 0.0 | 0.00 | 0.00 | 0.00 | 24 | 1013.2 |
| 20260902144604 | 69 | 0 | 0.0 | 0.0 | 0.00 | 0.00 | 0.00 | 23 | 1013.2 |
| 20260902144404 | 70 | 0 | 0.0 | 0.0 | 0.00 | 0.00 | 0.00 | 22 | 1013.2 |
| 20260902144204 | 70 | 0 | 0.0 | 0.0 | 0.00 | 0.00 | 0.00 | 22 | 1013.2 |
| 20260902144004 | 70 | 0 | 0.0 | 0.0 | 0.00 | 0.00 | 0.00 | 21 | 1013.1 |
| 20260902143804 | 70 | 0 | 0.0 | 0.0 | 0.00 | 0.00 | 0.00 | 21 | 1013.1 |
| 20260902143446 | 70 | 0 | 0.0 | 0.0 | 0.00 | 0.00 | 0.00 | 21 | 1013.0 |
| 20260902143204 | 69 | 0 | 0.0 | 0.0 | 0.00 | 0.00 | 0.00 | 22 | 1013.0 |
| 20260902143005 | 69 | 0 | 0.0 | 0.0 | 0.00 | 0.00 | 0.00 | 22 | 1012.9 |
| 20260902142804 | 69 | 0 | 0.0 | 0.0 | 0.00 | 0.00 | 0.00 | 21 | 1012.9 |
| 20260902142646 | 69 | 0 | 0.0 | 0.0 | 0.00 | 0.00 | 0.00 | 21 | 1012.8 |
| 20260902142414 | 68 | 0 | 0.0 | 0.0 | 0.00 | 0.00 | 0.00 | 21 | 1012.8 |
| 20260902142225 | 68 | 105 | 0.0 | 1.0 | 0.00 | 0.00 | 0.00 | 21 | 1012.9 |
| 20260902141804 | 67 | 99 | 0.0 | 2.0 | 0.00 | 0.00 | 0.00 | 22 | 1012.9 |
| 20260902141625 | 67 | 96 | 1.0 | 2.0 | 0.00 | 0.00 | 0.00 | 22 | 1012.9 |
| 20260902141423 | 66 | 96 | 1.0 | 2.0 | 0.00 | 0.00 | 0.00 | 22 | 1012.8 |
| 20260902141004 | 65 | 86 | 1.0 | 4.0 | 0.00 | 0.00 | 0.00 | 22 | 1012.8 |
| 20260902140626 | 64 | 81 | 2.0 | 5.0 | 0.00 | 0.00 | 0.00 | 22 | 1012.7 |
| 20260902140404 | 64 | 82 | 2.0 | 5.0 | 0.00 | 0.00 | 0.00 | 22 | 1012.6 |
| 20260902140225 | 64 | 83 | 3.0 | 5.0 | 0.00 | 0.00 | 0.00 | 22 | 1012.7 |
| 20260902140005 | 64 | 83 | 2.0 | 5.0 | 0.00 | 0.00 | 0.00 | 23 | 1012.6 |
| 20260902135825 | 64 | 85 | 2.0 | 5.0 | 0.00 | 0.00 | 0.00 | 23 | 1012.5 |
| 20260902135625 | 64 | 88 | 1.0 | 3.0 | 0.00 | 0.00 | 0.00 | 23 | 1012.5 |
| 20260902135404 | 64 | 85 | 1.0 | 4.0 | 0.00 | 0.00 | 0.00 | 23 | 1012.6 |
| 20260902135225 | 64 | 84 | 2.0 | 4.0 | 0.00 | 0.00 | 0.00 | 24 | 1012.6 |
| 20260902135004 | 64 | 84 | 2.0 | 4.0 | 0.00 | 0.00 | 0.00 | 24 | 1012.6 |
| 20260902134847 | 63 | 83 | 2.0 | 4.0 | 0.00 | 0.00 | 0.00 | 24 | 1012.6 |
| 20260902134625 | 63 | 83 | 2.0 | 4.0 | 0.00 | 0.00 | 0.00 | 24 | 1012.6 |
| 20260902134404 | 63 | 86 | 2.0 | 3.0 | 0.00 | 0.00 | 0.00 | 24 | 1012.6 |
| 20260902134204 | 63 | 87 | 2.0 | 3.0 | 0.00 | 0.00 | 0.00 | 25 | 1012.6 |
| 20260902134004 | 62 | 88 | 1.0 | 3.0 | 0.00 | 0.00 | 0.00 | 25 | 1012.6 |
| 20260902133804 | 62 | 88 | 1.0 | 3.0 | 0.00 | 0.00 | 0.00 | 26 | 1012.6 |
| 20260902133604 | 62 | 86 | 1.0 | 3.0 | 0.00 | 0.00 | 0.00 | 26 | 1012.6 |
| 20260902133404 | 62 | 86 | 1.0 | 3.0 | 0.00 | 0.00 | 0.00 | 26 | 1012.6 |
| 20260902133204 | 62 | 84 | 1.0 | 3.0 | 0.00 | 0.00 | 0.00 | 27 | 1012.6 |
| 20260902133004 | 62 | 84 | 1.0 | 3.0 | 0.00 | 0.00 | 0.00 | 27 | 1012.6 |
| 20260902132804 | 63 | 84 | 2.0 | 3.0 | 0.00 | 0.00 | 0.00 | 27 | 1012.6 |
| 20260902132604 | 63 | 85 | 2.0 | 3.0 | 0.00 | 0.00 | 0.00 | 27 | 1012.6 |
| 20260902132404 | 62 | 85 | 2.0 | 3.0 | 0.00 | 0.00 | 0.00 | 27 | 1012.6 |
| 20260902132204 | 62 | 86 | 2.0 | 3.0 | 0.00 | 0.00 | 0.00 | 27 | 1012.6 |
| 20260902132004 | 62 | 87 | 2.0 | 3.0 | 0.00 | 0.00 | 0.00 | 28 | 1012.7 |
| 20260902131804 | 62 | 88 | 2.0 | 3.0 | 0.00 | 0.00 | 0.00 | 28 | 1012.7 |
| 20260902131604 | 62 | 89 | 1.0 | 3.0 | 0.00 | 0.00 | 0.00 | 29 | 1012.7 |
| 20260902131404 | 62 | 89 | 2.0 | 3.0 | 0.00 | 0.00 | 0.00 | 30 | 1012.6 |
| 20260902131204 | 61 | 88 | 2.0 | 3.0 | 0.00 | 0.00 | 0.00 | 32 | 1012.6 |
| 20260902131004 | 61 | 86 | 2.0 | 3.0 | 0.00 | 0.00 | 0.00 | 34 | 1012.6 |
| 20260902130825 | 61 | 86 | 2.0 | 3.0 | 0.00 | 0.00 | 0.00 | 34 | 1012.7 |
| 20260902130604 | 61 | 85 | 2.0 | 3.0 | 0.00 | 0.00 | 0.00 | 34 | 1012.7 |
| 20260902130404 | 61 | 84 | 2.0 | 4.0 | 0.00 | 0.00 | 0.00 | 35 | 1012.7 |
| 20260902130204 | 61 | 83 | 2.0 | 4.0 | 0.00 | 0.00 | 0.00 | 35 | 1012.7 |
| 20260902130004 | 60 | 83 | 2.0 | 4.0 | 0.00 | 0.00 | 0.00 | 35 | 1012.7 |
| 20260902125804 | 60 | 83 | 2.0 | 4.0 | 0.00 | 0.00 | 0.00 | 36 | 1012.7 |
| 20260902125604 | 60 | 83 | 2.0 | 4.0 | 0.00 | 0.00 | 0.00 | 36 | 1012.7 |
| 20260902125405 | 60 | 85 | 2.0 | 3.0 | 0.00 | 0.00 | 0.00 | 36 | 1012.7 |
| 20260902125204 | 59 | 86 | 2.0 | 3.0 | 0.00 | 0.00 | 0.00 | 37 | 1012.7 |
| 20260902125004 | 59 | 86 | 2.0 | 3.0 | 0.00 | 0.00 | 0.00 | 37 | 1012.8 |
| 20260902124804 | 59 | 88 | 2.0 | 3.0 | 0.00 | 0.00 | 0.00 | 37 | 1012.7 |
| 20260902124605 | 59 | 87 | 2.0 | 3.0 | 0.00 | 0.00 | 0.00 | 38 | 1012.8 |
| 20260902124425 | 59 | 86 | 2.0 | 3.0 | 0.00 | 0.00 | 0.00 | 38 | 1012.7 |
| 20260902124204 | 59 | 87 | 2.0 | 3.0 | 0.00 | 0.00 | 0.00 | 39 | 1012.7 |
| 20260902124004 | 58 | 87 | 2.0 | 3.0 | 0.00 | 0.00 | 0.00 | 39 | 1012.7 |
| 20260902123804 | 58 | 86 | 2.0 | 3.0 | 0.00 | 0.00 | 0.00 | 39 | 1012.6 |
| 20260902123604 | 58 | 86 | 1.0 | 3.0 | 0.00 | 0.00 | 0.00 | 39 | 1012.7 |
| 20260902123404 | 58 | 87 | 1.0 | 3.0 | 0.00 | 0.00 | 0.00 | 40 | 1012.7 |
| 20260902123204 | 58 | 85 | 1.0 | 3.0 | 0.00 | 0.00 | 0.00 | 40 | 1012.6 |
| 20260902123004 | 58 | 84 | 1.0 | 3.0 | 0.00 | 0.00 | 0.00 | 42 | 1012.7 |
| 20260902122804 | 58 | 85 | 1.0 | 3.0 | 0.00 | 0.00 | 0.00 | 41 | 1012.6 |
| 20260902122604 | 58 | 87 | 1.0 | 2.0 | 0.00 | 0.00 | 0.00 | 42 | 1012.7 |
| 20260902122404 | 58 | 86 | 0.0 | 2.0 | 0.00 | 0.00 | 0.00 | 44 | 1012.7 |
| 20260902122204 | 58 | 86 | 0.0 | 2.0 | 0.00 | 0.00 | 0.00 | 45 | 1012.7 |
| 20260902122004 | 58 | 88 | 0.0 | 2.0 | 0.00 | 0.00 | 0.00 | 45 | 1012.7 |
| 20260902121804 | 58 | 100 | 0.0 | 2.0 | 0.00 | 0.00 | 0.00 | 45 | 1012.7 |
| 20260902121604 | 58 | 100 | 0.0 | 2.0 | 0.00 | 0.00 | 0.00 | 47 | 1012.7 |
| 20260902121404 | 58 | 100 | 0.0 | 2.0 | 0.00 | 0.00 | 0.00 | 48 | 1012.7 |
| 20260902121204 | 58 | 95 | 0.0 | 2.0 | 0.00 | 0.00 | 0.00 | 50 | 1012.6 |
| 20260902121004 | 58 | 79 | 0.0 | 2.0 | 0.00 | 0.00 | 0.00 | 51 | 1012.7 |
| 20260902120804 | 58 | 79 | 0.0 | 2.0 | 0.00 | 0.00 | 0.00 | 51 | 1012.6 |
| 20260902120604 | 58 | 79 | 0.0 | 2.0 | 0.00 | 0.00 | 0.00 | 50 | 1012.6 |
| 20260902120404 | 59 | 79 | 0.0 | 2.0 | 0.00 | 0.00 | 0.00 | 49 | 1012.7 |
| 20260902120204 | 59 | 79 | 0.0 | 2.0 | 0.00 | 0.00 | 0.00 | 49 | 1012.7 |
| 20260902120005 | 59 | 81 | 0.0 | 2.0 | 0.00 | 0.00 | 0.00 | 49 | 1012.7 |
| 20260902115804 | 59 | 77 | 0.0 | 1.0 | 0.00 | 0.00 | 0.00 | 50 | 1012.7 |
| 20260902115604 | 59 | 0 | 0.0 | 0.0 | 0.00 | 0.00 | 0.00 | 51 | 1012.7 |
| 20260902115404 | 58 | 0 | 0.0 | 0.0 | 0.00 | 0.00 | 0.00 | 53 | 1012.7 |
| 20260902115204 | 58 | 0 | 0.0 | 0.0 | 0.00 | 0.00 | 0.00 | 54 | 1012.7 |
| 20260902115004 | 58 | 0 | 0.0 | 0.0 | 0.00 | 0.00 | 0.00 | 54 | 1012.7 |
| 20260902114825 | 58 | 87 | 0.0 | 2.0 | 0.00 | 0.00 | 0.00 | 54 | 1012.7 |
| 20260902114604 | 58 | 87 | 0.0 | 2.0 | 0.00 | 0.00 | 0.00 | 55 | 1012.6 |
| 20260902114404 | 58 | 87 | 0.0 | 2.0 | 0.00 | 0.00 | 0.00 | 56 | 1012.6 |
| 20260902114204 | 58 | 87 | 0.0 | 2.0 | 0.00 | 0.00 | 0.00 | 54 | 1012.6 |
| 20260902114004 | 58 | 87 | 0.0 | 2.0 | 0.00 | 0.00 | 0.00 | 55 | 1012.6 |
| 20260902113804 | 58 | 0 | 0.0 | 0.0 | 0.00 | 0.00 | 0.00 | 57 | 1012.7 |
| 20260902113604 | 58 | 0 | 0.0 | 0.0 | 0.00 | 0.00 | 0.00 | 59 | 1012.7 |
| 20260902113404 | 58 | 0 | 0.0 | 0.0 | 0.00 | 0.00 | 0.00 | 59 | 1012.7 |
| 20260902113204 | 58 | 0 | 0.0 | 0.0 | 0.00 | 0.00 | 0.00 | 59 | 1012.7 |
| 20260902113025 | 58 | 0 | 0.0 | 0.0 | 0.00 | 0.00 | 0.00 | 60 | 1012.8 |
| 20260902112804 | 57 | 84 | 0.0 | 2.0 | 0.00 | 0.00 | 0.00 | 61 | 1012.8 |
| 20260902112625 | 57 | 83 | 0.0 | 3.0 | 0.00 | 0.00 | 0.00 | 62 | 1012.8 |
| 20260902112404 | 57 | 83 | 1.0 | 3.0 | 0.00 | 0.00 | 0.00 | 62 | 1012.9 |
| 20260902112204 | 57 | 83 | 1.0 | 3.0 | 0.00 | 0.00 | 0.00 | 62 | 1012.8 |
| 20260902112005 | 57 | 85 | 1.0 | 3.0 | 0.00 | 0.00 | 0.00 | 61 | 1012.9 |
| 20260902111804 | 57 | 86 | 1.0 | 3.0 | 0.00 | 0.00 | 0.00 | 60 | 1012.8 |
| 20260902111625 | 57 | 87 | 1.0 | 3.0 | 0.00 | 0.00 | 0.00 | 61 | 1012.8 |
| 20260902111404 | 57 | 87 | 1.0 | 3.0 | 0.00 | 0.00 | 0.00 | 62 | 1012.9 |
| 20260902111204 | 57 | 87 | 2.0 | 3.0 | 0.00 | 0.00 | 0.00 | 62 | 1012.9 |
| 20260902111004 | 57 | 87 | 1.0 | 3.0 | 0.00 | 0.00 | 0.00 | 62 | 1012.9 |
| 20260902110804 | 57 | 87 | 1.0 | 3.0 | 0.00 | 0.00 | 0.00 | 62 | 1012.9 |
| 20260902110604 | 57 | 86 | 1.0 | 3.0 | 0.00 | 0.00 | 0.00 | 61 | 1012.9 |
| 20260902110404 | 57 | 88 | 1.0 | 3.0 | 0.00 | 0.00 | 0.00 | 60 | 1013.0 |
| 20260902110204 | 57 | 88 | 0.0 | 2.0 | 0.00 | 0.00 | 0.00 | 61 | 1013.0 |
| 20260902110007 | 57 | 0 | 0.0 | 0.0 | 0.00 | 0.00 | 0.00 | 61 | 1013.0 |
| 20260902105804 | 57 | 89 | 0.0 | 1.0 | 0.00 | 0.00 | 0.00 | 61 | 1013.0 |
| 20260902105604 | 57 | 89 | 0.0 | 1.0 | 0.00 | 0.00 | 0.00 | 60 | 1013.0 |
| 20260902105404 | 57 | 89 | 0.0 | 1.0 | 0.00 | 0.00 | 0.00 | 60 | 1013.0 |
| 20260902105204 | 57 | 89 | 0.0 | 1.0 | 0.00 | 0.00 | 0.00 | 58 | 1013.0 |
| 20260902105004 | 57 | 89 | 0.0 | 1.0 | 0.00 | 0.00 | 0.00 | 58 | 1013.0 |
| 20260902104825 | 58 | 0 | 0.0 | 0.0 | 0.00 | 0.00 | 0.00 | 59 | 1013.0 |
| 20260902104604 | 58 | 0 | 0.0 | 0.0 | 0.00 | 0.00 | 0.00 | 60 | 1013.1 |
| 20260902104404 | 58 | 0 | 0.0 | 0.0 | 0.00 | 0.00 | 0.00 | 61 | 1013.0 |
| 20260902104204 | 58 | 0 | 0.0 | 0.0 | 0.00 | 0.00 | 0.00 | 61 | 1013.1 |
| 20260902104025 | 58 | 0 | 0.0 | 0.0 | 0.00 | 0.00 | 0.00 | 61 | 1013.0 |
| 20260902103804 | 58 | 0 | 0.0 | 0.0 | 0.00 | 0.00 | 0.00 | 61 | 1013.0 |
| 20260902103604 | 58 | 0 | 0.0 | 0.0 | 0.00 | 0.00 | 0.00 | 61 | 1013.0 |
| 20260902103425 | 58 | 90 | 0.0 | 1.0 | 0.00 | 0.00 | 0.00 | 61 | 1013.0 |
| 20260902103204 | 58 | 90 | 0.0 | 1.0 | 0.00 | 0.00 | 0.00 | 62 | 1013.0 |
| 20260902103004 | 58 | 90 | 0.0 | 1.0 | 0.00 | 0.00 | 0.00 | 61 | 1013.0 |
| 20260902102825 | 58 | 90 | 0.0 | 1.0 | 0.00 | 0.00 | 0.00 | 59 | 1012.9 |
| 20260902102604 | 58 | 80 | 0.0 | 2.0 | 0.00 | 0.00 | 0.00 | 60 | 1012.9 |
| 20260902102404 | 58 | 86 | 0.0 | 3.0 | 0.00 | 0.00 | 0.00 | 60 | 1013.0 |
| 20260902102204 | 58 | 86 | 0.0 | 3.0 | 0.00 | 0.00 | 0.00 | 59 | 1013.0 |
| 20260902102004 | 58 | 86 | 0.0 | 3.0 | 0.00 | 0.00 | 0.00 | 58 | 1013.0 |
| 20260902101805 | 58 | 86 | 0.0 | 3.0 | 0.00 | 0.00 | 0.00 | 57 | 1013.0 |
| 20260902101604 | 58 | 89 | 0.0 | 3.0 | 0.00 | 0.00 | 0.00 | 57 | 1013.0 |
| 20260902101404 | 58 | 0 | 0.0 | 0.0 | 0.00 | 0.00 | 0.00 | 58 | 1013.0 |
| 20260902101204 | 58 | 0 | 0.0 | 0.0 | 0.00 | 0.00 | 0.00 | 59 | 1013.0 |
| 20260902101004 | 58 | 0 | 0.0 | 0.0 | 0.00 | 0.00 | 0.00 | 59 | 1013.0 |
| 20260902100825 | 58 | 0 | 0.0 | 0.0 | 0.00 | 0.00 | 0.00 | 58 | 1013.1 |
| 20260902100604 | 58 | 0 | 0.0 | 0.0 | 0.00 | 0.00 | 0.00 | 59 | 1013.0 |
| 20260902100425 | 58 | 0 | 0.0 | 0.0 | 0.00 | 0.00 | 0.00 | 59 | 1013.0 |
| 20260902100204 | 58 | 0 | 0.0 | 0.0 | 0.00 | 0.00 | 0.00 | 59 | 1013.0 |
| 20260902100004 | 58 | 0 | 0.0 | 0.0 | 0.00 | 0.00 | 0.00 | 60 | 1013.0 |
| 20260902095825 | 58 | 0 | 0.0 | 0.0 | 0.00 | 0.00 | 0.00 | 60 | 1012.9 |
| 20260902095604 | 58 | 0 | 0.0 | 0.0 | 0.00 | 0.00 | 0.00 | 59 | 1012.9 |
| 20260902095404 | 58 | 0 | 0.0 | 0.0 | 0.00 | 0.00 | 0.00 | 55 | 1012.8 |
| 20260902095204 | 58 | 0 | 0.0 | 0.0 | 0.00 | 0.00 | 0.00 | 57 | 1012.9 |
| 20260902095004 | 58 | 0 | 0.0 | 0.0 | 0.00 | 0.00 | 0.00 | 60 | 1012.9 |
| 20260902094804 | 58 | 0 | 0.0 | 0.0 | 0.00 | 0.00 | 0.00 | 60 | 1012.8 |
| 20260902094604 | 58 | 0 | 0.0 | 0.0 | 0.00 | 0.00 | 0.00 | 58 | 1012.9 |
| 20260902094404 | 58 | 0 | 0.0 | 0.0 | 0.00 | 0.00 | 0.00 | 58 | 1012.9 |
| 20260902094204 | 58 | 0 | 0.0 | 0.0 | 0.00 | 0.00 | 0.00 | 59 | 1012.9 |
| 20260902094004 | 58 | 0 | 0.0 | 0.0 | 0.00 | 0.00 | 0.00 | 60 | 1012.8 |
| 20260902093804 | 58 | 0 | 0.0 | 0.0 | 0.00 | 0.00 | 0.00 | 61 | 1012.9 |
| 20260902093604 | 58 | 0 | 0.0 | 0.0 | 0.00 | 0.00 | 0.00 | 61 | 1012.9 |
| 20260902093404 | 58 | 0 | 0.0 | 0.0 | 0.00 | 0.00 | 0.00 | 62 | 1012.9 |
| 20260902093204 | 58 | 0 | 0.0 | 0.0 | 0.00 | 0.00 | 0.00 | 62 | 1012.9 |
| 20260902093004 | 58 | 0 | 0.0 | 0.0 | 0.00 | 0.00 | 0.00 | 61 | 1012.9 |
| 20260902092804 | 58 | 0 | 0.0 | 0.0 | 0.00 | 0.00 | 0.00 | 62 | 1012.9 |
| 20260902092604 | 58 | 0 | 0.0 | 0.0 | 0.00 | 0.00 | 0.00 | 60 | 1012.9 |
| 20260902092404 | 58 | 0 | 0.0 | 0.0 | 0.00 | 0.00 | 0.00 | 59 | 1012.9 |
| 20260902092204 | 58 | 85 | 0.0 | 1.0 | 0.00 | 0.00 | 0.00 | 59 | 1012.9 |
| 20260902092026 | 58 | 83 | 0.0 | 2.0 | 0.00 | 0.00 | 0.00 | 59 | 1012.9 |
| 20260902091804 | 58 | 83 | 0.0 | 2.0 | 0.00 | 0.00 | 0.00 | 58 | 1012.9 |
| 20260902091604 | 58 | 84 | 0.0 | 2.0 | 0.00 | 0.00 | 0.00 | 58 | 1012.9 |
| 20260902091426 | 58 | 83 | 0.0 | 2.0 | 0.00 | 0.00 | 0.00 | 58 | 1012.9 |
| 20260902091205 | 58 | 83 | 0.0 | 2.0 | 0.00 | 0.00 | 0.00 | 57 | 1012.9 |
| 20260902091004 | 58 | 83 | 0.0 | 1.0 | 0.00 | 0.00 | 0.00 | 57 | 1012.9 |
| 20260902090804 | 59 | 83 | 0.0 | 1.0 | 0.00 | 0.00 | 0.00 | 56 | 1012.9 |
| 20260902090604 | 59 | 80 | 0.0 | 1.0 | 0.00 | 0.00 | 0.00 | 57 | 1012.9 |
| 20260902090425 | 59 | 0 | 0.0 | 0.0 | 0.00 | 0.00 | 0.00 | 57 | 1012.9 |
| 20260902090204 | 59 | 0 | 0.0 | 0.0 | 0.00 | 0.00 | 0.00 | 59 | 1012.9 |
| 20260902090005 | 59 | 0 | 0.0 | 0.0 | 0.00 | 0.00 | 0.00 | 59 | 1012.9 |
| 20260902085804 | 60 | 0 | 0.0 | 0.0 | 0.00 | 0.00 | 0.00 | 59 | 1012.9 |
| 20260902085625 | 60 | 0 | 0.0 | 0.0 | 0.00 | 0.00 | 0.00 | 59 | 1013.0 |
| 20260902085404 | 60 | 0 | 0.0 | 0.0 | 0.00 | 0.00 | 0.00 | 61 | 1013.0 |
| 20260902085204 | 60 | 0 | 0.0 | 0.0 | 0.00 | 0.00 | 0.00 | 61 | 1013.0 |
| 20260902085004 | 59 | 0 | 0.0 | 0.0 | 0.00 | 0.00 | 0.00 | 61 | 1013.0 |
| 20260902084804 | 59 | 0 | 0.0 | 0.0 | 0.00 | 0.00 | 0.00 | 60 | 1013.0 |
| 20260902084625 | 59 | 0 | 0.0 | 0.0 | 0.00 | 0.00 | 0.00 | 58 | 1013.0 |
| 20260902084404 | 59 | 0 | 0.0 | 0.0 | 0.00 | 0.00 | 0.00 | 59 | 1013.0 |
| 20260902084204 | 59 | 0 | 0.0 | 0.0 | 0.00 | 0.00 | 0.00 | 59 | 1013.0 |
| 20260902084004 | 59 | 0 | 0.0 | 0.0 | 0.00 | 0.00 | 0.00 | 60 | 1013.0 |
| 20260902083804 | 59 | 0 | 0.0 | 0.0 | 0.00 | 0.00 | 0.00 | 61 | 1013.0 |
| 20260902083604 | 59 | 0 | 0.0 | 0.0 | 0.00 | 0.00 | 0.00 | 61 | 1013.0 |
| 20260902083405 | 59 | 0 | 0.0 | 0.0 | 0.00 | 0.00 | 0.00 | 62 | 1013.0 |
| 20260902083225 | 60 | 0 | 0.0 | 0.0 | 0.00 | 0.00 | 0.00 | 63 | 1013.1 |
| 20260902083004 | 59 | 0 | 0.0 | 0.0 | 0.00 | 0.00 | 0.00 | 64 | 1013.0 |
| 20260902082804 | 59 | 86 | 0.0 | 1.0 | 0.00 | 0.00 | 0.00 | 64 | 1013.1 |
| 20260902082604 | 59 | 86 | 0.0 | 1.0 | 0.00 | 0.00 | 0.00 | 64 | 1013.1 |
| 20260902082404 | 59 | 86 | 0.0 | 1.0 | 0.00 | 0.00 | 0.00 | 64 | 1013.1 |
| 20260902082204 | 60 | 86 | 0.0 | 1.0 | 0.00 | 0.00 | 0.00 | 63 | 1013.1 |
| 20260902082004 | 60 | 86 | 0.0 | 1.0 | 0.00 | 0.00 | 0.00 | 64 | 1013.1 |
| 20260902081804 | 60 | 89 | 0.0 | 1.0 | 0.00 | 0.00 | 0.00 | 64 | 1013.1 |
| 20260902081604 | 60 | 89 | 0.0 | 1.0 | 0.00 | 0.00 | 0.00 | 63 | 1013.1 |
| 20260902081404 | 60 | 88 | 0.0 | 1.0 | 0.00 | 0.00 | 0.00 | 63 | 1013.1 |
| 20260902081204 | 60 | 88 | 0.0 | 1.0 | 0.00 | 0.00 | 0.00 | 63 | 1013.0 |
| 20260902081004 | 60 | 88 | 0.0 | 1.0 | 0.00 | 0.00 | 0.00 | 63 | 1013.1 |
| 20260902080825 | 60 | 88 | 0.0 | 1.0 | 0.00 | 0.00 | 0.00 | 63 | 1013.1 |
| 20260902080604 | 60 | 88 | 0.0 | 1.0 | 0.00 | 0.00 | 0.00 | 63 | 1013.1 |
| 20260902080425 | 60 | 88 | 0.0 | 1.0 | 0.00 | 0.00 | 0.00 | 63 | 1013.1 |
| 20260902080205 | 60 | 87 | 0.0 | 1.0 | 0.00 | 0.00 | 0.00 | 63 | 1013.1 |
| 20260902080025 | 60 | 88 | 0.0 | 1.0 | 0.00 | 0.00 | 0.00 | 63 | 1013.1 |
| 20260902075804 | 60 | 87 | 0.0 | 1.0 | 0.00 | 0.00 | 0.00 | 62 | 1013.1 |
| 20260902075604 | 60 | 84 | 0.0 | 1.0 | 0.00 | 0.00 | 0.00 | 62 | 1013.1 |
| 20260902075404 | 60 | 82 | 0.0 | 2.0 | 0.00 | 0.00 | 0.00 | 62 | 1013.1 |
| 20260902075204 | 60 | 82 | 0.0 | 2.0 | 0.00 | 0.00 | 0.00 | 62 | 1013.0 |
| 20260902075025 | 60 | 82 | 0.0 | 2.0 | 0.00 | 0.00 | 0.00 | 62 | 1013.0 |
| 20260902074804 | 60 | 82 | 0.0 | 2.0 | 0.00 | 0.00 | 0.00 | 61 | 1013.0 |
| 20260902074604 | 60 | 82 | 0.0 | 2.0 | 0.00 | 0.00 | 0.00 | 61 | 1012.9 |
| 20260902074404 | 60 | 0 | 0.0 | 0.0 | 0.00 | 0.00 | 0.00 | 61 | 1012.9 |
| 20260902074225 | 60 | 0 | 0.0 | 0.0 | 0.00 | 0.00 | 0.00 | 61 | 1012.8 |
| 20260902074004 | 60 | 0 | 0.0 | 0.0 | 0.00 | 0.00 | 0.00 | 61 | 1012.8 |
| 20260902073804 | 60 | 0 | 0.0 | 0.0 | 0.00 | 0.00 | 0.00 | 61 | 1012.8 |
| 20260902073604 | 60 | 0 | 0.0 | 0.0 | 0.00 | 0.00 | 0.00 | 61 | 1012.7 |
| 20260902073404 | 60 | 86 | 0.0 | 1.0 | 0.00 | 0.00 | 0.00 | 61 | 1012.7 |
| 20260902073204 | 61 | 86 | 0.0 | 1.0 | 0.00 | 0.00 | 0.00 | 61 | 1012.7 |
| 20260902073004 | 61 | 86 | 0.0 | 1.0 | 0.00 | 0.00 | 0.00 | 60 | 1012.6 |
| 20260902072804 | 61 | 96 | 0.0 | 2.0 | 0.00 | 0.00 | 0.00 | 60 | 1012.6 |
| 20260902072625 | 61 | 87 | 0.0 | 3.0 | 0.00 | 0.00 | 0.00 | 61 | 1012.6 |
| 20260902072404 | 61 | 86 | 1.0 | 3.0 | 0.00 | 0.00 | 0.00 | 60 | 1012.6 |
| 20260902072204 | 61 | 85 | 1.0 | 3.0 | 0.00 | 0.00 | 0.00 | 60 | 1012.5 |
| 20260902072004 | 60 | 86 | 1.0 | 3.0 | 0.00 | 0.00 | 0.00 | 60 | 1012.5 |
| 20260902071826 | 61 | 85 | 1.0 | 3.0 | 0.00 | 0.00 | 0.00 | 59 | 1012.5 |
| 20260902071604 | 61 | 84 | 0.0 | 3.0 | 0.00 | 0.00 | 0.00 | 59 | 1012.5 |
| 20260902071404 | 61 | 80 | 0.0 | 2.0 | 0.00 | 0.00 | 0.00 | 58 | 1012.5 |
| 20260902071205 | 61 | 91 | 0.0 | 1.0 | 0.00 | 0.00 | 0.00 | 59 | 1012.5 |
| 20260902071025 | 61 | 88 | 0.0 | 2.0 | 0.00 | 0.00 | 0.00 | 58 | 1012.5 |
| 20260902070804 | 61 | 89 | 0.0 | 2.0 | 0.00 | 0.00 | 0.00 | 58 | 1012.5 |
| 20260902070625 | 61 | 86 | 1.0 | 4.0 | 0.00 | 0.00 | 0.00 | 58 | 1012.5 |
| 20260902070404 | 61 | 86 | 1.0 | 4.0 | 0.00 | 0.00 | 0.00 | 59 | 1012.5 |
| 20260902070225 | 61 | 87 | 1.0 | 4.0 | 0.00 | 0.00 | 0.00 | 59 | 1012.5 |
| 20260902070006 | 60 | 88 | 1.0 | 4.0 | 0.00 | 0.00 | 0.00 | 59 | 1012.5 |
| 20260902065804 | 60 | 88 | 1.0 | 4.0 | 0.00 | 0.00 | 0.00 | 59 | 1012.5 |
| 20260902065604 | 61 | 88 | 1.0 | 3.0 | 0.00 | 0.00 | 0.00 | 59 | 1012.5 |
| 20260902065404 | 61 | 87 | 1.0 | 3.0 | 0.00 | 0.00 | 0.00 | 59 | 1012.5 |
| 20260902065204 | 60 | 86 | 1.0 | 3.0 | 0.00 | 0.00 | 0.00 | 59 | 1012.5 |
| 20260902065004 | 61 | 85 | 1.0 | 3.0 | 0.00 | 0.00 | 0.00 | 59 | 1012.5 |
| 20260902064825 | 61 | 84 | 1.0 | 3.0 | 0.00 | 0.00 | 0.00 | 59 | 1012.5 |
| 20260902064604 | 61 | 82 | 0.0 | 2.0 | 0.00 | 0.00 | 0.00 | 60 | 1012.5 |
| 20260902064425 | 61 | 85 | 0.0 | 3.0 | 0.00 | 0.00 | 0.00 | 60 | 1012.5 |
| 20260902064204 | 61 | 89 | 0.0 | 3.0 | 0.00 | 0.00 | 0.00 | 60 | 1012.5 |
| 20260902064004 | 61 | 89 | 0.0 | 3.0 | 0.00 | 0.00 | 0.00 | 59 | 1012.5 |
| 20260902063804 | 61 | 89 | 0.0 | 3.0 | 0.00 | 0.00 | 0.00 | 59 | 1012.5 |
| 20260902063604 | 61 | 90 | 1.0 | 3.0 | 0.00 | 0.00 | 0.00 | 59 | 1012.5 |
| 20260902063425 | 61 | 91 | 1.0 | 3.0 | 0.00 | 0.00 | 0.00 | 59 | 1012.5 |
| 20260902063204 | 61 | 91 | 0.0 | 3.0 | 0.00 | 0.00 | 0.00 | 59 | 1012.5 |
| 20260902063004 | 61 | 91 | 0.0 | 3.0 | 0.00 | 0.00 | 0.00 | 59 | 1012.5 |
| 20260902062804 | 61 | 90 | 1.0 | 3.0 | 0.00 | 0.00 | 0.00 | 59 | 1012.5 |
| 20260902062604 | 61 | 90 | 1.0 | 3.0 | 0.00 | 0.00 | 0.00 | 58 | 1012.5 |
| 20260902062404 | 61 | 89 | 1.0 | 3.0 | 0.00 | 0.00 | 0.00 | 57 | 1012.4 |
| 20260902062204 | 61 | 89 | 1.0 | 3.0 | 0.00 | 0.00 | 0.00 | 57 | 1012.4 |
| 20260902062005 | 61 | 89 | 1.0 | 3.0 | 0.00 | 0.00 | 0.00 | 57 | 1012.5 |
| 20260902061825 | 61 | 90 | 1.0 | 3.0 | 0.00 | 0.00 | 0.00 | 57 | 1012.5 |
| 20260902061404 | 61 | 89 | 0.0 | 3.0 | 0.00 | 0.00 | 0.00 | 57 | 1012.5 |
| 20260902061204 | 62 | 86 | 1.0 | 3.0 | 0.00 | 0.00 | 0.00 | 56 | 1012.5 |
| 20260902061046 | 62 | 87 | 1.0 | 3.0 | 0.00 | 0.00 | 0.00 | 57 | 1012.5 |
| 20260902060804 | 62 | 88 | 1.0 | 3.0 | 0.00 | 0.00 | 0.00 | 57 | 1012.5 |
| 20260902060605 | 62 | 89 | 1.0 | 3.0 | 0.00 | 0.00 | 0.00 | 56 | 1012.4 |
| 20260902060404 | 62 | 90 | 1.0 | 3.0 | 0.00 | 0.00 | 0.00 | 56 | 1012.4 |
| 20260902060204 | 62 | 91 | 2.0 | 3.0 | 0.00 | 0.00 | 0.00 | 56 | 1012.4 |
| 20260902060004 | 62 | 91 | 2.0 | 3.0 | 0.00 | 0.00 | 0.00 | 56 | 1012.3 |
| 20260902055825 | 62 | 90 | 1.0 | 3.0 | 0.00 | 0.00 | 0.00 | 55 | 1012.3 |
| 20260902055604 | 62 | 91 | 1.0 | 3.0 | 0.00 | 0.00 | 0.00 | 54 | 1012.4 |
| 20260902055405 | 62 | 89 | 1.0 | 3.0 | 0.00 | 0.00 | 0.00 | 54 | 1012.4 |
| 20260902055204 | 62 | 88 | 0.0 | 3.0 | 0.00 | 0.00 | 0.00 | 54 | 1012.4 |
| 20260902055004 | 62 | 86 | 1.0 | 3.0 | 0.00 | 0.00 | 0.00 | 54 | 1012.5 |
| 20260902054804 | 62 | 86 | 1.0 | 3.0 | 0.00 | 0.00 | 0.00 | 54 | 1012.5 |
| 20260902054604 | 62 | 87 | 1.0 | 3.0 | 0.00 | 0.00 | 0.00 | 54 | 1012.5 |
| 20260902054404 | 62 | 87 | 1.0 | 3.0 | 0.00 | 0.00 | 0.00 | 54 | 1012.5 |
| 20260902054204 | 62 | 87 | 1.0 | 3.0 | 0.00 | 0.00 | 0.00 | 54 | 1012.4 |
| 20260902054004 | 62 | 87 | 1.0 | 3.0 | 0.00 | 0.00 | 0.00 | 54 | 1012.5 |
| 20260902053825 | 62 | 85 | 0.0 | 3.0 | 0.00 | 0.00 | 0.00 | 54 | 1012.4 |
| 20260902053625 | 62 | 94 | 0.0 | 3.0 | 0.00 | 0.00 | 0.00 | 54 | 1012.4 |
| 20260902053404 | 62 | 94 | 0.0 | 3.0 | 0.00 | 0.00 | 0.00 | 54 | 1012.4 |
| 20260902053204 | 62 | 94 | 0.0 | 3.0 | 0.00 | 0.00 | 0.00 | 54 | 1012.4 |
| 20260902053004 | 63 | 94 | 0.0 | 3.0 | 0.00 | 0.00 | 0.00 | 54 | 1012.4 |
| 20260902052804 | 63 | 97 | 0.0 | 3.0 | 0.00 | 0.00 | 0.00 | 54 | 1012.4 |
| 20260902052604 | 63 | 86 | 0.0 | 2.0 | 0.00 | 0.00 | 0.00 | 54 | 1012.4 |
| 20260902052404 | 63 | 85 | 0.0 | 2.0 | 0.00 | 0.00 | 0.00 | 53 | 1012.4 |
| 20260902052204 | 63 | 90 | 0.0 | 3.0 | 0.00 | 0.00 | 0.00 | 53 | 1012.5 |
| 20260902052004 | 63 | 93 | 0.0 | 3.0 | 0.00 | 0.00 | 0.00 | 52 | 1012.4 |
| 20260902051825 | 63 | 93 | 0.0 | 3.0 | 0.00 | 0.00 | 0.00 | 52 | 1012.4 |
| 20260902051604 | 63 | 95 | 0.0 | 3.0 | 0.00 | 0.00 | 0.00 | 51 | 1012.4 |
| 20260902051404 | 63 | 96 | 0.0 | 3.0 | 0.00 | 0.00 | 0.00 | 51 | 1012.4 |
| 20260902051204 | 63 | 95 | 0.0 | 3.0 | 0.00 | 0.00 | 0.00 | 51 | 1012.4 |
| 20260902051004 | 63 | 0 | 0.0 | 0.0 | 0.00 | 0.00 | 0.00 | 51 | 1012.4 |
| 20260902050804 | 63 | 0 | 0.0 | 0.0 | 0.00 | 0.00 | 0.00 | 51 | 1012.4 |
| 20260902050604 | 63 | 0 | 0.0 | 0.0 | 0.00 | 0.00 | 0.00 | 50 | 1012.4 |
| 20260902050404 | 63 | 0 | 0.0 | 0.0 | 0.00 | 0.00 | 0.00 | 50 | 1012.5 |
| 20260902050204 | 63 | 0 | 0.0 | 0.0 | 0.00 | 0.00 | 0.00 | 49 | 1012.4 |
| 20260902050007 | 64 | 0 | 0.0 | 0.0 | 0.00 | 0.00 | 0.00 | 49 | 1012.3 |
| 20260902045804 | 64 | 0 | 0.0 | 0.0 | 0.00 | 0.00 | 0.00 | 48 | 1012.3 |
| 20260902045605 | 64 | 0 | 0.0 | 0.0 | 0.00 | 0.00 | 0.00 | 48 | 1012.2 |
| 20260902045404 | 64 | 0 | 0.0 | 0.0 | 0.00 | 0.00 | 0.00 | 48 | 1012.2 |
| 20260902045204 | 64 | 0 | 0.0 | 0.0 | 0.00 | 0.00 | 0.00 | 48 | 1012.2 |
| 20260902045004 | 64 | 84 | 0.0 | 1.0 | 0.00 | 0.00 | 0.00 | 48 | 1012.2 |
| 20260902044804 | 64 | 94 | 0.0 | 1.0 | 0.00 | 0.00 | 0.00 | 48 | 1012.2 |
| 20260902044604 | 64 | 99 | 0.0 | 3.0 | 0.00 | 0.00 | 0.00 | 47 | 1012.2 |
| 20260902044404 | 64 | 97 | 0.0 | 3.0 | 0.00 | 0.00 | 0.00 | 47 | 1012.1 |
| 20260902044204 | 64 | 97 | 1.0 | 3.0 | 0.00 | 0.00 | 0.00 | 47 | 1012.2 |
| 20260902044004 | 64 | 98 | 1.0 | 3.0 | 0.00 | 0.00 | 0.00 | 47 | 1012.2 |
| 20260902043804 | 64 | 97 | 1.0 | 3.0 | 0.00 | 0.00 | 0.00 | 47 | 1012.2 |
| 20260902043604 | 64 | 93 | 0.0 | 3.0 | 0.00 | 0.00 | 0.00 | 47 | 1012.2 |
| 20260902043404 | 64 | 96 | 0.0 | 2.0 | 0.00 | 0.00 | 0.00 | 47 | 1012.2 |
| 20260902043225 | 64 | 96 | 0.0 | 2.0 | 0.00 | 0.00 | 0.00 | 46 | 1012.2 |
| 20260902043004 | 64 | 73 | 0.0 | 1.0 | 0.00 | 0.00 | 0.00 | 46 | 1012.1 |
| 20260902042804 | 64 | 0 | 0.0 | 0.0 | 0.00 | 0.00 | 0.00 | 46 | 1012.1 |
| 20260902042604 | 65 | 0 | 0.0 | 0.0 | 0.00 | 0.00 | 0.00 | 47 | 1012.1 |
| 20260902042425 | 65 | 0 | 0.0 | 0.0 | 0.00 | 0.00 | 0.00 | 46 | 1012.1 |
| 20260902042204 | 65 | 0 | 0.0 | 0.0 | 0.00 | 0.00 | 0.00 | 45 | 1012.1 |
| 20260902042004 | 65 | 0 | 0.0 | 0.0 | 0.00 | 0.00 | 0.00 | 45 | 1012.2 |
| 20260902041825 | 65 | 0 | 0.0 | 0.0 | 0.00 | 0.00 | 0.00 | 45 | 1012.1 |
| 20260902041604 | 65 | 98 | 0.0 | 2.0 | 0.00 | 0.00 | 0.00 | 45 | 1012.1 |
| 20260902041404 | 65 | 96 | 0.0 | 2.0 | 0.00 | 0.00 | 0.00 | 45 | 1012.1 |
| 20260902041204 | 65 | 96 | 0.0 | 2.0 | 0.00 | 0.00 | 0.00 | 45 | 1012.0 |
| 20260902041004 | 65 | 96 | 0.0 | 2.0 | 0.00 | 0.00 | 0.00 | 45 | 1012.0 |
| 20260902040825 | 65 | 96 | 0.0 | 2.0 | 0.00 | 0.00 | 0.00 | 44 | 1012.0 |
| 20260902040604 | 65 | 92 | 0.0 | 2.0 | 0.00 | 0.00 | 0.00 | 44 | 1012.0 |
| 20260902040404 | 66 | 0 | 0.0 | 0.0 | 0.00 | 0.00 | 0.00 | 44 | 1012.0 |
| 20260902040204 | 66 | 0 | 0.0 | 0.0 | 0.00 | 0.00 | 0.00 | 44 | 1012.0 |
| 20260902040025 | 66 | 0 | 0.0 | 0.0 | 0.00 | 0.00 | 0.00 | 44 | 1012.0 |
| 20260902035825 | 66 | 0 | 0.0 | 0.0 | 0.00 | 0.00 | 0.00 | 44 | 1011.9 |
| 20260902035604 | 66 | 0 | 0.0 | 0.0 | 0.00 | 0.00 | 0.00 | 43 | 1011.9 |
| 20260902035404 | 66 | 0 | 0.0 | 0.0 | 0.00 | 0.00 | 0.00 | 43 | 1011.9 |
| 20260902035204 | 66 | 90 | 0.0 | 2.0 | 0.00 | 0.00 | 0.00 | 43 | 1011.9 |
| 20260902035004 | 66 | 88 | 0.0 | 2.0 | 0.00 | 0.00 | 0.00 | 43 | 1011.8 |
| 20260902034804 | 66 | 90 | 0.0 | 2.0 | 0.00 | 0.00 | 0.00 | 43 | 1011.8 |
| 20260902034604 | 66 | 90 | 0.0 | 2.0 | 0.00 | 0.00 | 0.00 | 43 | 1011.8 |
| 20260902034404 | 66 | 90 | 0.0 | 2.0 | 0.00 | 0.00 | 0.00 | 43 | 1011.6 |
| 20260902034204 | 66 | 89 | 0.0 | 2.0 | 0.00 | 0.00 | 0.00 | 42 | 1011.6 |
| 20260902034004 | 66 | 97 | 0.0 | 2.0 | 0.00 | 0.00 | 0.00 | 42 | 1011.5 |
| 20260902033804 | 66 | 0 | 0.0 | 0.0 | 0.00 | 0.00 | 0.00 | 42 | 1011.5 |
| 20260902033604 | 67 | 0 | 0.0 | 0.0 | 0.00 | 0.00 | 0.00 | 43 | 1011.5 |
| 20260902033404 | 66 | 0 | 0.0 | 0.0 | 0.00 | 0.00 | 0.00 | 43 | 1011.5 |
| 20260902033204 | 67 | 0 | 0.0 | 0.0 | 0.00 | 0.00 | 0.00 | 43 | 1011.5 |
| 20260902033004 | 67 | 0 | 0.0 | 0.0 | 0.00 | 0.00 | 0.00 | 42 | 1011.5 |
| 20260902032804 | 67 | 0 | 0.0 | 0.0 | 0.00 | 0.00 | 0.00 | 41 | 1011.5 |
| 20260902032604 | 67 | 0 | 0.0 | 0.0 | 0.00 | 0.00 | 0.00 | 41 | 1011.5 |
| 20260902032404 | 67 | 0 | 0.0 | 0.0 | 0.00 | 0.00 | 0.00 | 41 | 1011.4 |
| 20260902032225 | 67 | 0 | 0.0 | 0.0 | 0.00 | 0.00 | 0.00 | 40 | 1011.4 |
| 20260902032004 | 67 | 0 | 0.0 | 0.0 | 0.00 | 0.00 | 0.00 | 40 | 1011.4 |
| 20260902031825 | 67 | 0 | 0.0 | 0.0 | 0.00 | 0.00 | 0.00 | 40 | 1011.4 |
| 20260902031604 | 67 | 0 | 0.0 | 0.0 | 0.00 | 0.00 | 0.00 | 39 | 1011.4 |
| 20260902031404 | 67 | 0 | 0.0 | 0.0 | 0.00 | 0.00 | 0.00 | 39 | 1011.4 |
| 20260902031204 | 68 | 0 | 0.0 | 0.0 | 0.00 | 0.00 | 0.00 | 38 | 1011.4 |
| 20260902031004 | 68 | 91 | 0.0 | 1.0 | 0.00 | 0.00 | 0.00 | 38 | 1011.4 |
| 20260902030825 | 68 | 91 | 0.0 | 2.0 | 0.00 | 0.00 | 0.00 | 38 | 1011.3 |
| 20260902030604 | 68 | 91 | 0.0 | 2.0 | 0.00 | 0.00 | 0.00 | 37 | 1011.3 |
| 20260902030404 | 68 | 91 | 0.0 | 2.0 | 0.00 | 0.00 | 0.00 | 37 | 1011.2 |
| 20260902030204 | 68 | 91 | 0.0 | 2.0 | 0.00 | 0.00 | 0.00 | 37 | 1011.3 |
| 20260902030004 | 68 | 91 | 0.0 | 2.0 | 0.00 | 0.00 | 0.00 | 36 | 1011.2 |
| 20260902025825 | 69 | 0 | 0.0 | 0.0 | 0.00 | 0.00 | 0.00 | 36 | 1011.2 |
| 20260902025604 | 69 | 356 | 0.0 | 1.0 | 0.00 | 0.00 | 0.00 | 36 | 1011.2 |
| 20260902025404 | 69 | 356 | 0.0 | 1.0 | 0.00 | 0.00 | 0.00 | 36 | 1011.2 |
| 20260902025204 | 69 | 356 | 0.0 | 1.0 | 0.00 | 0.00 | 0.00 | 36 | 1011.1 |
| 20260902025004 | 70 | 356 | 0.0 | 1.0 | 0.00 | 0.00 | 0.00 | 37 | 1011.1 |
| 20260902024804 | 70 | 356 | 0.0 | 1.0 | 0.00 | 0.00 | 0.00 | 36 | 1011.1 |
| 20260902024604 | 70 | 0 | 0.0 | 0.0 | 0.00 | 0.00 | 0.00 | 35 | 1011.1 |
| 20260902024404 | 70 | 0 | 0.0 | 0.0 | 0.00 | 0.00 | 0.00 | 35 | 1011.1 |
| 20260902024204 | 70 | 0 | 0.0 | 0.0 | 0.00 | 0.00 | 0.00 | 35 | 1011.1 |
| 20260902024004 | 70 | 0 | 0.0 | 0.0 | 0.00 | 0.00 | 0.00 | 34 | 1011.0 |
| 20260902023804 | 71 | 0 | 0.0 | 0.0 | 0.00 | 0.00 | 0.00 | 34 | 1011.0 |
| 20260902023625 | 71 | 0 | 0.0 | 0.0 | 0.00 | 0.00 | 0.00 | 34 | 1011.0 |
| 20260902023425 | 71 | 0 | 0.0 | 0.0 | 0.00 | 0.00 | 0.00 | 34 | 1011.0 |
| 20260902023204 | 71 | 0 | 0.0 | 0.0 | 0.00 | 0.00 | 0.00 | 33 | 1011.0 |
| 20260902023004 | 71 | 0 | 0.0 | 0.0 | 0.00 | 0.00 | 0.00 | 33 | 1011.0 |
| 20260902022825 | 72 | 0 | 0.0 | 0.0 | 0.00 | 0.00 | 0.00 | 33 | 1011.0 |
| 20260902022604 | 72 | 0 | 0.0 | 0.0 | 0.00 | 0.00 | 0.00 | 32 | 1011.0 |
| 20260902022425 | 72 | 307 | 0.0 | 1.0 | 0.00 | 0.00 | 0.00 | 31 | 1011.0 |
| 20260902022204 | 72 | 334 | 0.0 | 3.0 | 0.00 | 0.00 | 0.00 | 31 | 1011.0 |
| 20260902022026 | 73 | 329 | 0.0 | 3.0 | 0.00 | 0.00 | 0.00 | 31 | 1011.0 |
| 20260902021804 | 73 | 325 | 0.0 | 3.0 | 0.00 | 0.00 | 0.00 | 31 | 1010.9 |
| 20260902021625 | 73 | 325 | 0.0 | 3.0 | 0.00 | 0.00 | 0.00 | 30 | 1010.9 |
| 20260902021405 | 74 | 331 | 0.0 | 3.0 | 0.00 | 0.00 | 0.00 | 30 | 1011.0 |
| 20260902021204 | 74 | 311 | 0.0 | 3.0 | 0.00 | 0.00 | 0.00 | 30 | 1010.9 |
| 20260902021025 | 74 | 306 | 0.0 | 2.0 | 0.00 | 0.00 | 0.00 | 30 | 1010.9 |
| 20260902020804 | 74 | 308 | 0.0 | 2.0 | 0.00 | 0.00 | 0.00 | 30 | 1010.9 |
| 20260902020604 | 75 | 318 | 1.0 | 3.0 | 0.00 | 0.00 | 0.00 | 30 | 1011.0 |
| 20260902020404 | 75 | 314 | 1.0 | 5.0 | 0.00 | 0.00 | 0.00 | 30 | 1011.0 |
| 20260902020204 | 75 | 302 | 2.0 | 7.0 | 0.00 | 0.00 | 0.00 | 29 | 1011.0 |
| 20260902020025 | 75 | 301 | 2.0 | 7.0 | 0.00 | 0.00 | 0.00 | 28 | 1011.0 |
| 20260902015804 | 75 | 298 | 3.0 | 8.0 | 0.00 | 0.00 | 0.00 | 27 | 1011.0 |
| 20260902015604 | 75 | 297 | 3.0 | 8.0 | 0.00 | 0.00 | 0.00 | 27 | 1011.0 |
| 20260902015404 | 75 | 296 | 3.0 | 8.0 | 0.00 | 0.00 | 0.00 | 27 | 1010.9 |
| 20260902015225 | 75 | 297 | 3.0 | 8.0 | 0.00 | 0.00 | 0.00 | 28 | 1010.9 |
| 20260902015004 | 75 | 299 | 3.0 | 8.0 | 0.00 | 0.00 | 0.00 | 27 | 1011.0 |
| 20260902014804 | 75 | 297 | 3.0 | 8.0 | 0.00 | 0.00 | 0.00 | 28 | 1011.0 |
| 20260902014604 | 76 | 296 | 3.0 | 8.0 | 0.00 | 0.00 | 0.00 | 27 | 1011.0 |
| 20260902014404 | 76 | 299 | 3.0 | 8.0 | 0.00 | 0.00 | 0.00 | 27 | 1011.0 |
| 20260902014204 | 76 | 300 | 2.0 | 8.0 | 0.00 | 0.00 | 0.00 | 27 | 1011.0 |
| 20260902014004 | 76 | 297 | 3.0 | 8.0 | 0.00 | 0.00 | 0.00 | 27 | 1010.9 |
| 20260902013804 | 76 | 303 | 2.0 | 7.0 | 0.00 | 0.00 | 0.00 | 27 | 1010.9 |
| 20260902013604 | 76 | 302 | 2.0 | 5.0 | 0.00 | 0.00 | 0.00 | 27 | 1010.9 |
| 20260902013404 | 76 | 297 | 3.0 | 7.0 | 0.00 | 0.00 | 0.00 | 27 | 1010.9 |
| 20260902013204 | 76 | 293 | 4.0 | 8.0 | 0.00 | 0.00 | 0.00 | 27 | 1010.9 |
| 20260902013004 | 76 | 295 | 4.0 | 8.0 | 0.00 | 0.00 | 0.00 | 26 | 1010.9 |
| 20260902012804 | 76 | 295 | 4.0 | 8.0 | 0.00 | 0.00 | 0.00 | 27 | 1011.0 |
| 20260902012625 | 76 | 296 | 4.0 | 8.0 | 0.00 | 0.00 | 0.00 | 27 | 1011.0 |
| 20260902012404 | 77 | 298 | 4.0 | 8.0 | 0.00 | 0.00 | 0.00 | 26 | 1010.9 |
| 20260902012204 | 77 | 301 | 3.0 | 8.0 | 0.00 | 0.00 | 0.00 | 27 | 1011.0 |
| 20260902012004 | 77 | 302 | 3.0 | 8.0 | 0.00 | 0.00 | 0.00 | 26 | 1010.9 |
| 20260902011804 | 77 | 306 | 3.0 | 8.0 | 0.00 | 0.00 | 0.00 | 27 | 1010.9 |
| 20260902011604 | 77 | 309 | 3.0 | 8.0 | 0.00 | 0.00 | 0.00 | 26 | 1010.9 |
| 20260902011404 | 78 | 311 | 3.0 | 8.0 | 0.00 | 0.00 | 0.00 | 26 | 1010.9 |
| 20260902011204 | 78 | 311 | 3.0 | 8.0 | 0.00 | 0.00 | 0.00 | 27 | 1010.9 |
| 20260902011025 | 78 | 312 | 3.0 | 8.0 | 0.00 | 0.00 | 0.00 | 26 | 1010.9 |
| 20260902010825 | 78 | 312 | 3.0 | 7.0 | 0.00 | 0.00 | 0.00 | 26 | 1010.9 |
| 20260902010625 | 78 | 309 | 3.0 | 8.0 | 0.00 | 0.00 | 0.00 | 26 | 1010.8 |
| 20260902010404 | 78 | 310 | 3.0 | 8.0 | 0.00 | 0.00 | 0.00 | 26 | 1010.9 |
| 20260902010204 | 78 | 310 | 4.0 | 8.0 | 0.00 | 0.00 | 0.00 | 26 | 1010.8 |
| 20260902010005 | 78 | 306 | 4.0 | 8.0 | 0.00 | 0.00 | 0.00 | 27 | 1010.9 |
| 20260902005804 | 78 | 303 | 4.0 | 11.0 | 0.00 | 0.00 | 0.00 | 27 | 1010.9 |
| 20260902005604 | 78 | 300 | 4.0 | 11.0 | 0.00 | 0.00 | 0.00 | 28 | 1010.9 |
| 20260902005404 | 78 | 297 | 5.0 | 11.0 | 0.00 | 0.00 | 0.00 | 27 | 1010.9 |
| 20260902005204 | 78 | 300 | 5.0 | 11.0 | 0.00 | 0.00 | 0.00 | 27 | 1010.9 |
| 20260902005004 | 78 | 300 | 5.0 | 11.0 | 0.00 | 0.00 | 0.00 | 27 | 1010.9 |
| 20260902004804 | 79 | 300 | 4.0 | 11.0 | 0.00 | 0.00 | 0.00 | 28 | 1010.8 |
| 20260902004604 | 79 | 298 | 5.0 | 13.0 | 0.00 | 0.00 | 0.00 | 28 | 1010.9 |
| 20260902004425 | 79 | 298 | 5.0 | 13.0 | 0.00 | 0.00 | 0.00 | 28 | 1010.9 |
| 20260902004204 | 79 | 297 | 4.0 | 13.0 | 0.00 | 0.00 | 0.00 | 28 | 1010.9 |
| 20260902004004 | 79 | 297 | 5.0 | 13.0 | 0.00 | 0.00 | 0.00 | 29 | 1010.9 |
| 20260902003804 | 79 | 296 | 5.0 | 13.0 | 0.00 | 0.00 | 0.00 | 28 | 1010.9 |
| 20260902003604 | 79 | 301 | 4.0 | 11.0 | 0.00 | 0.00 | 0.00 | 28 | 1010.9 |
| 20260902003404 | 79 | 302 | 4.0 | 9.0 | 0.00 | 0.00 | 0.00 | 29 | 1010.9 |
| 20260902003204 | 79 | 297 | 4.0 | 9.0 | 0.00 | 0.00 | 0.00 | 29 | 1010.9 |
| 20260902003004 | 80 | 296 | 4.0 | 10.0 | 0.00 | 0.00 | 0.00 | 29 | 1010.9 |
| 20260902002825 | 79 | 295 | 4.0 | 10.0 | 0.00 | 0.00 | 0.00 | 29 | 1010.9 |
| 20260902002604 | 79 | 293 | 5.0 | 10.0 | 0.00 | 0.00 | 0.00 | 30 | 1010.9 |
| 20260902002404 | 79 | 292 | 5.0 | 10.0 | 0.00 | 0.00 | 0.00 | 30 | 1010.9 |
| 20260902002204 | 79 | 293 | 5.0 | 10.0 | 0.00 | 0.00 | 0.00 | 30 | 1010.9 |
| 20260902002004 | 80 | 294 | 5.0 | 10.0 | 0.00 | 0.00 | 0.00 | 30 | 1010.9 |
| 20260902001804 | 80 | 295 | 5.0 | 10.0 | 0.00 | 0.00 | 0.00 | 30 | 1010.9 |
| 20260902001605 | 80 | 295 | 5.0 | 12.0 | 0.00 | 0.00 | 0.00 | 30 | 1010.9 |
| 20260902001405 | 80 | 294 | 5.0 | 12.0 | 0.00 | 0.00 | 0.00 | 31 | 1011.0 |
| 20260902001204 | 80 | 293 | 5.0 | 12.0 | 0.00 | 0.00 | 0.00 | 31 | 1011.0 |
| 20260902001004 | 80 | 293 | 5.0 | 12.0 | 0.00 | 0.00 | 0.00 | 30 | 1011.0 |
| 20260902000805 | 80 | 292 | 6.0 | 12.0 | 0.00 | 0.00 | 0.00 | 30 | 1011.0 |
| 20260902000626 | 80 | 293 | 6.0 | 12.0 | 0.00 | 0.00 | 0.00 | 30 | 1011.0 |
| 20260902000406 | 80 | 294 | 6.0 | 12.0 | 0.00 | 0.00 | 0.00 | 29 | 1011.0 |
| 20260902000204 | 80 | 292 | 5.0 | 12.0 | 0.00 | 0.00 | 0.00 | 28 | 1010.9 |
| 20260902000004 | 81 | 292 | 5.0 | 12.0 | 0.00 | 0.00 | 0.00 | 27 | 1010.9 |
| 20260901235804 | 81 | 291 | 5.0 | 10.0 | 0.00 | 0.00 | 0.00 | 27 | 1010.9 |
| 20260901235604 | 81 | 290 | 5.0 | 10.0 | 0.00 | 0.00 | 0.00 | 27 | 1010.9 |
| 20260901235404 | 80 | 288 | 4.0 | 9.0 | 0.00 | 0.00 | 0.00 | 26 | 1010.9 |
| 20260901235204 | 80 | 294 | 5.0 | 11.0 | 0.00 | 0.00 | 0.00 | 25 | 1010.9 |
| 20260901235025 | 80 | 294 | 5.0 | 11.0 | 0.00 | 0.00 | 0.00 | 25 | 1010.9 |
| 20260901234804 | 81 | 293 | 5.0 | 11.0 | 0.00 | 0.00 | 0.00 | 25 | 1010.9 |
| 20260901234604 | 81 | 291 | 5.0 | 11.0 | 0.00 | 0.00 | 0.00 | 24 | 1010.9 |
| 20260901234404 | 81 | 292 | 5.0 | 11.0 | 0.00 | 0.00 | 0.00 | 25 | 1010.9 |
| 20260901234225 | 81 | 292 | 5.0 | 11.0 | 0.00 | 0.00 | 0.00 | 24 | 1010.9 |
| 20260901234025 | 81 | 290 | 4.0 | 11.0 | 0.00 | 0.00 | 0.00 | 24 | 1010.8 |
| 20260901233804 | 82 | 291 | 5.0 | 11.0 | 0.00 | 0.00 | 0.00 | 24 | 1010.8 |
| 20260901233625 | 82 | 295 | 4.0 | 10.0 | 0.00 | 0.00 | 0.00 | 23 | 1010.9 |
| 20260901233404 | 82 | 293 | 4.0 | 10.0 | 0.00 | 0.00 | 0.00 | 24 | 1010.9 |
| 20260901233204 | 82 | 291 | 4.0 | 10.0 | 0.00 | 0.00 | 0.00 | 24 | 1010.9 |
| 20260901233004 | 82 | 293 | 3.0 | 10.0 | 0.00 | 0.00 | 0.00 | 23 | 1010.8 |
| 20260901232804 | 82 | 292 | 3.0 | 9.0 | 0.00 | 0.00 | 0.00 | 25 | 1010.9 |
| 20260901232604 | 82 | 296 | 3.0 | 9.0 | 0.00 | 0.00 | 0.00 | 24 | 1010.9 |
| 20260901232404 | 82 | 304 | 3.0 | 9.0 | 0.00 | 0.00 | 0.00 | 25 | 1010.8 |
| 20260901232225 | 81 | 305 | 3.0 | 9.0 | 0.00 | 0.00 | 0.00 | 24 | 1010.8 |
| 20260901232004 | 82 | 301 | 3.0 | 9.0 | 0.00 | 0.00 | 0.00 | 25 | 1010.8 |
| 20260901231804 | 82 | 300 | 3.0 | 10.0 | 0.00 | 0.00 | 0.00 | 25 | 1010.9 |
| 20260901231625 | 82 | 297 | 4.0 | 10.0 | 0.00 | 0.00 | 0.00 | 25 | 1010.9 |
| 20260901231404 | 82 | 293 | 4.0 | 10.0 | 0.00 | 0.00 | 0.00 | 25 | 1011.0 |
| 20260901231204 | 82 | 291 | 4.0 | 10.0 | 0.00 | 0.00 | 0.00 | 25 | 1011.0 |
| 20260901231004 | 82 | 290 | 4.0 | 10.0 | 0.00 | 0.00 | 0.00 | 25 | 1011.0 |
| 20260901230804 | 82 | 291 | 3.0 | 10.0 | 0.00 | 0.00 | 0.00 | 25 | 1011.0 |
| 20260901230604 | 82 | 286 | 2.0 | 7.0 | 0.00 | 0.00 | 0.00 | 24 | 1011.0 |
| 20260901230404 | 82 | 281 | 1.0 | 6.0 | 0.00 | 0.00 | 0.00 | 24 | 1011.0 |
| 20260901230225 | 82 | 284 | 1.0 | 6.0 | 0.00 | 0.00 | 0.00 | 23 | 1011.0 |
| 20260901230025 | 83 | 318 | 0.0 | 2.0 | 0.00 | 0.00 | 0.00 | 24 | 1011.1 |
| 20260901225804 | 82 | 293 | 0.0 | 3.0 | 0.00 | 0.00 | 0.00 | 24 | 1011.1 |
| 20260901225604 | 82 | 297 | 1.0 | 8.0 | 0.00 | 0.00 | 0.00 | 24 | 1011.1 |
| 20260901225404 | 82 | 296 | 1.0 | 8.0 | 0.00 | 0.00 | 0.00 | 25 | 1011.2 |
| 20260901225204 | 81 | 303 | 1.0 | 8.0 | 0.00 | 0.00 | 0.00 | 24 | 1011.2 |
| 20260901225004 | 81 | 321 | 2.0 | 8.0 | 0.00 | 0.00 | 0.00 | 24 | 1011.2 |
| 20260901224804 | 81 | 308 | 2.0 | 8.0 | 0.00 | 0.00 | 0.00 | 24 | 1011.2 |
| 20260901224604 | 81 | 283 | 3.0 | 9.0 | 0.00 | 0.00 | 0.00 | 25 | 1011.3 |